Location: Antioch Church
(34.9543°N, 88.5145°W)
Time: 02:04:30
(UTC+00:00)

Lacrosse 5 - Pass Details

Date: 11 December 2019
Orbit: 717 x 722 km, 57.0° (Epoch: 10 January)

Event Time Altitude Azimuth Distance (km) Brightness Sun altitude
Rises 00:12:57 0° 192° (SSW) 3,106 5.5 -18.0°
Reaches altitude 10° 00:15:33 10° 182° (S) 2,189 4.6 -18.5°
Maximum altitude 00:19:54 30° 121° (ESE) 1,268 2.8 -19.4°
Enters shadow 00:20:08 30° 116° (ESE) 1,271 2.7 -19.4°
